owner,sensor,date,latitude,longitude,air_pressure(mBar),qcFlag 
WAVCIS,ioos:station:WAVCIS:CSI09:1,2013-05-01T00:00:00Z,29.1015,-89.9782,1010.28,11111222 
WAVCIS,ioos:station:WAVCIS:CSI09:1,2013-05-01T01:00:00Z,29.1015,-89.9782,1010.74,11111222 
WAVCIS,ioos:station:WAVCIS:CSI09:1,2013-05-01T02:00:00Z,29.1015,-89.9782,1010.51,11111222 
WAVCIS,ioos:station:WAVCIS:CSI09:1,2013-05-01T03:00:00Z,29.1015,-89.9782,1011.43,11111222 
WAVCIS,ioos:station:WAVCIS:CSI09:1,2013-05-01T04:00:00Z,29.1015,-89.9782,1011.0,11111222 
WAVCIS,ioos:station:WAVCIS:CSI09:1,2013-05-01T05:00:00Z,29.1015,-89.9782,1011.13,11111222 
WAVCIS,ioos:station:WAVCIS:CSI09:1,2013-05-01T06:00:00Z,29.1015,-89.9782,1010.73,11111222 
WAVCIS,ioos:station:WAVCIS:CSI09:1,2013-05-01T07:00:00Z,29.1015,-89.9782,1009.65,11111222 
WAVCIS,ioos:station:WAVCIS:CSI09:1,2013-05-01T08:00:00Z,29.1015,-89.9782,1009.15,11111222 
WAVCIS,ioos:station:WAVCIS:CSI09:1,2013-05-01T09:00:00Z,29.1015,-89.9782,1008.83,11111222 
WAVCIS,ioos:station:WAVCIS:CSI09:1,2013-05-01T10:00:00Z,29.1015,-89.9782,1009.59,11111222 
WAVCIS,ioos:station:WAVCIS:CSI09:1,2013-05-01T11:00:00Z,29.1015,-89.9782,1010.37,11111222 
WAVCIS,ioos:station:WAVCIS:CSI09:1,2013-05-01T12:00:00Z,29.1015,-89.9782,1010.29,11111222 
WAVCIS,ioos:station:WAVCIS:CSI09:1,2013-05-01T13:00:00Z,29.1015,-89.9782,1010.8,11111222 
WAVCIS,ioos:station:WAVCIS:CSI09:1,2013-05-01T14:00:00Z,29.1015,-89.9782,1011.07,11111222 
WAVCIS,ioos:station:WAVCIS:CSI09:1,2013-05-01T15:00:00Z,29.1015,-89.9782,1011.71,11111222 
WAVCIS,ioos:station:WAVCIS:CSI09:1,2013-05-01T16:00:00Z,29.1015,-89.9782,1011.83,11111222 
WAVCIS,ioos:station:WAVCIS:CSI09:1,2013-05-01T17:00:00Z,29.1015,-89.9782,1011.72,11111222 
WAVCIS,ioos:station:WAVCIS:CSI09:1,2013-05-01T18:00:00Z,29.1015,-89.9782,1011.12,11111222 
WAVCIS,ioos:station:WAVCIS:CSI09:1,2013-05-01T19:00:00Z,29.1015,-89.9782,1010.59,11111222 
WAVCIS,ioos:station:WAVCIS:CSI09:1,2013-05-01T20:00:00Z,29.1015,-89.9782,1010.31,11111222 
WAVCIS,ioos:station:WAVCIS:CSI09:1,2013-05-01T21:00:00Z,29.1015,-89.9782,1009.79,11111222 
WAVCIS,ioos:station:WAVCIS:CSI09:1,2013-05-01T22:00:00Z,29.1015,-89.9782,1009.3,11111222 
WAVCIS,ioos:station:WAVCIS:CSI09:1,2013-05-01T23:00:00Z,29.1015,-89.9782,1009.91,11111222 
WAVCIS,ioos:station:WAVCIS:CSI09:1,2013-05-02T00:00:00Z,29.1015,-89.9782,1010.11,11111222 
WAVCIS,ioos:station:WAVCIS:CSI09:1,2013-05-02T01:00:00Z,29.1015,-89.9782,1010.57,11111222 
WAVCIS,ioos:station:WAVCIS:CSI09:1,2013-05-02T02:00:00Z,29.1015,-89.9782,1011.19,11111222 
WAVCIS,ioos:station:WAVCIS:CSI09:1,2013-05-02T03:00:00Z,29.1015,-89.9782,1011.31,11111222 
WAVCIS,ioos:station:WAVCIS:CSI09:1,2013-05-02T04:00:00Z,29.1015,-89.9782,1011.26,11111222 
WAVCIS,ioos:station:WAVCIS:CSI09:1,2013-05-02T05:00:00Z,29.1015,-89.9782,1011.0,11111222 
WAVCIS,ioos:station:WAVCIS:CSI09:1,2013-05-02T06:00:00Z,29.1015,-89.9782,1010.74,11111222 
WAVCIS,ioos:station:WAVCIS:CSI09:1,2013-05-02T07:00:00Z,29.1015,-89.9782,1010.66,11111222 
WAVCIS,ioos:station:WAVCIS:CSI09:1,2013-05-02T08:00:00Z,29.1015,-89.9782,1010.2,11111222 
WAVCIS,ioos:station:WAVCIS:CSI09:1,2013-05-02T09:00:00Z,29.1015,-89.9782,1010.3,11111222 
WAVCIS,ioos:station:WAVCIS:CSI09:1,2013-05-02T10:00:00Z,29.1015,-89.9782,1010.84,11111222 
WAVCIS,ioos:station:WAVCIS:CSI09:1,2013-05-02T11:00:00Z,29.1015,-89.9782,1011.6,11111222 
WAVCIS,ioos:station:WAVCIS:CSI09:1,2013-05-02T12:00:00Z,29.1015,-89.9782,1012.06,11111222 
WAVCIS,ioos:station:WAVCIS:CSI09:1,2013-05-02T13:00:00Z,29.1015,-89.9782,1012.49,11111222 
WAVCIS,ioos:station:WAVCIS:CSI09:1,2013-05-02T14:00:00Z,29.1015,-89.9782,1012.7,11111222 
WAVCIS,ioos:station:WAVCIS:CSI09:1,2013-05-02T15:00:00Z,29.1015,-89.9782,1013.04,11111222 
WAVCIS,ioos:station:WAVCIS:CSI09:1,2013-05-02T16:00:00Z,29.1015,-89.9782,1013.15,11111222 
WAVCIS,ioos:station:WAVCIS:CSI09:1,2013-05-02T17:00:00Z,29.1015,-89.9782,1012.81,11111222 
WAVCIS,ioos:station:WAVCIS:CSI09:1,2013-05-02T18:00:00Z,29.1015,-89.9782,1012.41,11111222 
WAVCIS,ioos:station:WAVCIS:CSI09:1,2013-05-02T19:00:00Z,29.1015,-89.9782,1012.12,11111222 
WAVCIS,ioos:station:WAVCIS:CSI09:1,2013-05-02T20:00:00Z,29.1015,-89.9782,1011.76,11111222 
WAVCIS,ioos:station:WAVCIS:CSI09:1,2013-05-02T21:00:00Z,29.1015,-89.9782,1011.68,11111222 
WAVCIS,ioos:station:WAVCIS:CSI09:1,2013-05-02T22:00:00Z,29.1015,-89.9782,1011.22,11111222 
WAVCIS,ioos:station:WAVCIS:CSI09:1,2013-05-02T23:00:00Z,29.1015,-89.9782,1011.5,11111222 
WAVCIS,ioos:station:WAVCIS:CSI09:1,2013-05-03T00:00:00Z,29.1015,-89.9782,1011.58,11111222 
WAVCIS,ioos:station:WAVCIS:CSI09:1,2013-05-03T01:00:00Z,29.1015,-89.9782,1012.11,11111222 
WAVCIS,ioos:station:WAVCIS:CSI09:1,2013-05-03T02:00:00Z,29.1015,-89.9782,1012.66,11111222 
WAVCIS,ioos:station:WAVCIS:CSI09:1,2013-05-03T03:00:00Z,29.1015,-89.9782,1012.79,11111222 
WAVCIS,ioos:station:WAVCIS:CSI09:1,2013-05-03T04:00:00Z,29.1015,-89.9782,1012.7,11111222 
WAVCIS,ioos:station:WAVCIS:CSI09:1,2013-05-03T05:00:00Z,29.1015,-89.9782,1012.26,11111222 
WAVCIS,ioos:station:WAVCIS:CSI09:1,2013-05-03T06:00:00Z,29.1015,-89.9782,1012.15,11111222 
WAVCIS,ioos:station:WAVCIS:CSI09:1,2013-05-03T07:00:00Z,29.1015,-89.9782,1011.61,11111222 
WAVCIS,ioos:station:WAVCIS:CSI09:1,2013-05-03T08:00:00Z,29.1015,-89.9782,1011.25,11111222 
WAVCIS,ioos:station:WAVCIS:CSI09:1,2013-05-03T09:00:00Z,29.1015,-89.9782,1010.89,11111222 
WAVCIS,ioos:station:WAVCIS:CSI09:1,2013-05-03T10:00:00Z,29.1015,-89.9782,1011.0,11111222 
WAVCIS,ioos:station:WAVCIS:CSI09:1,2013-05-03T11:00:00Z,29.1015,-89.9782,1011.29,11111222 
WAVCIS,ioos:station:WAVCIS:CSI09:1,2013-05-03T12:00:00Z,29.1015,-89.9782,1011.72,11111222 
WAVCIS,ioos:station:WAVCIS:CSI09:1,2013-05-03T13:00:00Z,29.1015,-89.9782,1011.99,11111222 
WAVCIS,ioos:station:WAVCIS:CSI09:1,2013-05-03T14:00:00Z,29.1015,-89.9782,1012.23,11111222 
WAVCIS,ioos:station:WAVCIS:CSI09:1,2013-05-03T15:00:00Z,29.1015,-89.9782,1012.52,11111222 
WAVCIS,ioos:station:WAVCIS:CSI09:1,2013-05-03T16:00:00Z,29.1015,-89.9782,1012.75,11111222 
WAVCIS,ioos:station:WAVCIS:CSI09:1,2013-05-03T17:00:00Z,29.1015,-89.9782,1012.34,11111222 
WAVCIS,ioos:station:WAVCIS:CSI09:1,2013-05-03T18:00:00Z,29.1015,-89.9782,1012.23,11111222 
WAVCIS,ioos:station:WAVCIS:CSI09:1,2013-05-03T19:00:00Z,29.1015,-89.9782,1012.07,11111222 
WAVCIS,ioos:station:WAVCIS:CSI09:1,2013-05-03T20:00:00Z,29.1015,-89.9782,1011.7,11111222 
WAVCIS,ioos:station:WAVCIS:CSI09:1,2013-05-03T21:00:00Z,29.1015,-89.9782,1011.06,11111222 
WAVCIS,ioos:station:WAVCIS:CSI09:1,2013-05-03T22:00:00Z,29.1015,-89.9782,1011.27,11111222 
WAVCIS,ioos:station:WAVCIS:CSI09:1,2013-05-03T23:00:00Z,29.1015,-89.9782,1011.29,11111222 
WAVCIS,ioos:station:WAVCIS:CSI09:1,2013-05-04T00:00:00Z,29.1015,-89.9782,1011.92,11111222 
WAVCIS,ioos:station:WAVCIS:CSI09:1,2013-05-04T01:00:00Z,29.1015,-89.9782,1012.74,11111222 
WAVCIS,ioos:station:WAVCIS:CSI09:1,2013-05-04T02:00:00Z,29.1015,-89.9782,1013.92,11111222 
WAVCIS,ioos:station:WAVCIS:CSI09:1,2013-05-04T03:00:00Z,29.1015,-89.9782,1014.95,11111222 
WAVCIS,ioos:station:WAVCIS:CSI09:1,2013-05-04T04:00:00Z,29.1015,-89.9782,1014.98,11111222 
WAVCIS,ioos:station:WAVCIS:CSI09:1,2013-05-04T05:00:00Z,29.1015,-89.9782,1015.18,11111222 
WAVCIS,ioos:station:WAVCIS:CSI09:1,2013-05-04T06:00:00Z,29.1015,-89.9782,1015.05,11111222 
WAVCIS,ioos:station:WAVCIS:CSI09:1,2013-05-04T07:00:00Z,29.1015,-89.9782,1014.68,11111222 
WAVCIS,ioos:station:WAVCIS:CSI09:1,2013-05-04T08:00:00Z,29.1015,-89.9782,1014.57,11111222 
WAVCIS,ioos:station:WAVCIS:CSI09:1,2013-05-04T09:00:00Z,29.1015,-89.9782,1014.81,11111222 
WAVCIS,ioos:station:WAVCIS:CSI09:1,2013-05-04T10:00:00Z,29.1015,-89.9782,1014.78,11111222 
WAVCIS,ioos:station:WAVCIS:CSI09:1,2013-05-04T11:00:00Z,29.1015,-89.9782,1014.93,11111222 
WAVCIS,ioos:station:WAVCIS:CSI09:1,2013-05-04T12:00:00Z,29.1015,-89.9782,1015.6,11111222 
WAVCIS,ioos:station:WAVCIS:CSI09:1,2013-05-04T13:00:00Z,29.1015,-89.9782,1016.0,11111222 
WAVCIS,ioos:station:WAVCIS:CSI09:1,2013-05-04T14:00:00Z,29.1015,-89.9782,1016.15,11111222 
WAVCIS,ioos:station:WAVCIS:CSI09:1,2013-05-04T15:00:00Z,29.1015,-89.9782,1016.17,11111222 
WAVCIS,ioos:station:WAVCIS:CSI09:1,2013-05-04T16:00:00Z,29.1015,-89.9782,1016.33,11111222 
WAVCIS,ioos:station:WAVCIS:CSI09:1,2013-05-04T17:00:00Z,29.1015,-89.9782,1016.24,11111222 
WAVCIS,ioos:station:WAVCIS:CSI09:1,2013-05-04T18:00:00Z,29.1015,-89.9782,1015.83,11111222 
WAVCIS,ioos:station:WAVCIS:CSI09:1,2013-05-04T19:00:00Z,29.1015,-89.9782,1015.56,11111222 
WAVCIS,ioos:station:WAVCIS:CSI09:1,2013-05-04T20:00:00Z,29.1015,-89.9782,1014.72,11111222 
WAVCIS,ioos:station:WAVCIS:CSI09:1,2013-05-04T21:00:00Z,29.1015,-89.9782,1013.87,11111222 
WAVCIS,ioos:station:WAVCIS:CSI09:1,2013-05-04T22:00:00Z,29.1015,-89.9782,1013.46,11111222 
WAVCIS,ioos:station:WAVCIS:CSI09:1,2013-05-04T23:00:00Z,29.1015,-89.9782,1012.98,11111222 
WAVCIS,ioos:station:WAVCIS:CSI09:1,2013-05-05T00:00:00Z,29.1015,-89.9782,1012.86,11111222 
WAVCIS,ioos:station:WAVCIS:CSI09:1,2013-05-05T01:00:00Z,29.1015,-89.9782,1013.2,11111222 
WAVCIS,ioos:station:WAVCIS:CSI09:1,2013-05-05T02:00:00Z,29.1015,-89.9782,1013.93,11111222 
WAVCIS,ioos:station:WAVCIS:CSI09:1,2013-05-05T03:00:00Z,29.1015,-89.9782,1014.1,11111222 
WAVCIS,ioos:station:WAVCIS:CSI09:1,2013-05-05T04:00:00Z,29.1015,-89.9782,1014.07,11111222 
WAVCIS,ioos:station:WAVCIS:CSI09:1,2013-05-05T05:00:00Z,29.1015,-89.9782,1013.73,11111222 
WAVCIS,ioos:station:WAVCIS:CSI09:1,2013-05-05T06:00:00Z,29.1015,-89.9782,1013.25,11111222 
WAVCIS,ioos:station:WAVCIS:CSI09:1,2013-05-05T07:00:00Z,29.1015,-89.9782,1012.82,11111222 
WAVCIS,ioos:station:WAVCIS:CSI09:1,2013-05-05T08:00:00Z,29.1015,-89.9782,1012.36,11111222 
WAVCIS,ioos:station:WAVCIS:CSI09:1,2013-05-05T09:00:00Z,29.1015,-89.9782,1012.2,11111222 
WAVCIS,ioos:station:WAVCIS:CSI09:1,2013-05-05T10:00:00Z,29.1015,-89.9782,1012.21,11111222 
WAVCIS,ioos:station:WAVCIS:CSI09:1,2013-05-05T11:00:00Z,29.1015,-89.9782,1012.43,11111222 
WAVCIS,ioos:station:WAVCIS:CSI09:1,2013-05-05T12:00:00Z,29.1015,-89.9782,1012.81,11111222 
WAVCIS,ioos:station:WAVCIS:CSI09:1,2013-05-05T13:00:00Z,29.1015,-89.9782,1013.06,11111222 
WAVCIS,ioos:station:WAVCIS:CSI09:1,2013-05-05T14:00:00Z,29.1015,-89.9782,1013.08,11111222 
WAVCIS,ioos:station:WAVCIS:CSI09:1,2013-05-05T15:00:00Z,29.1015,-89.9782,1013.95,11111222 
WAVCIS,ioos:station:WAVCIS:CSI09:1,2013-05-05T16:00:00Z,29.1015,-89.9782,1014.46,11111222 
WAVCIS,ioos:station:WAVCIS:CSI09:1,2013-05-05T17:00:00Z,29.1015,-89.9782,1014.47,11111222 
WAVCIS,ioos:station:WAVCIS:CSI09:1,2013-05-05T18:00:00Z,29.1015,-89.9782,1014.17,11111222 
WAVCIS,ioos:station:WAVCIS:CSI09:1,2013-05-05T19:00:00Z,29.1015,-89.9782,1013.85,11111222 
WAVCIS,ioos:station:WAVCIS:CSI09:1,2013-05-05T20:00:00Z,29.1015,-89.9782,1013.47,11111222 
WAVCIS,ioos:station:WAVCIS:CSI09:1,2013-05-05T21:00:00Z,29.1015,-89.9782,1013.13,11111222 
WAVCIS,ioos:station:WAVCIS:CSI09:1,2013-05-05T22:00:00Z,29.1015,-89.9782,1013.02,11111222 
WAVCIS,ioos:station:WAVCIS:CSI09:1,2013-05-05T23:00:00Z,29.1015,-89.9782,1013.26,11111222 
WAVCIS,ioos:station:WAVCIS:CSI09:1,2013-05-06T00:00:00Z,29.1015,-89.9782,1014.04,11111222 
WAVCIS,ioos:station:WAVCIS:CSI09:1,2013-05-06T01:00:00Z,29.1015,-89.9782,1014.7,11111222 
WAVCIS,ioos:station:WAVCIS:CSI09:1,2013-05-06T02:00:00Z,29.1015,-89.9782,1015.21,11111222 
WAVCIS,ioos:station:WAVCIS:CSI09:1,2013-05-06T03:00:00Z,29.1015,-89.9782,1016.09,11111222 
WAVCIS,ioos:station:WAVCIS:CSI09:1,2013-05-06T04:00:00Z,29.1015,-89.9782,1016.52,11111222 
WAVCIS,ioos:station:WAVCIS:CSI09:1,2013-05-06T05:00:00Z,29.1015,-89.9782,1016.85,11111222 
WAVCIS,ioos:station:WAVCIS:CSI09:1,2013-05-06T06:00:00Z,29.1015,-89.9782,1016.89,11111222 
WAVCIS,ioos:station:WAVCIS:CSI09:1,2013-05-06T07:00:00Z,29.1015,-89.9782,1016.55,11111222 
WAVCIS,ioos:station:WAVCIS:CSI09:1,2013-05-06T08:00:00Z,29.1015,-89.9782,1016.19,11111222 
WAVCIS,ioos:station:WAVCIS:CSI09:1,2013-05-06T09:00:00Z,29.1015,-89.9782,1016.13,11111222 
WAVCIS,ioos:station:WAVCIS:CSI09:1,2013-05-06T10:00:00Z,29.1015,-89.9782,1016.32,11111222 
WAVCIS,ioos:station:WAVCIS:CSI09:1,2013-05-06T11:00:00Z,29.1015,-89.9782,1016.51,11111222 
WAVCIS,ioos:station:WAVCIS:CSI09:1,2013-05-06T12:00:00Z,29.1015,-89.9782,1017.15,11111222 
WAVCIS,ioos:station:WAVCIS:CSI09:1,2013-05-06T13:00:00Z,29.1015,-89.9782,1017.81,11111222 
WAVCIS,ioos:station:WAVCIS:CSI09:1,2013-05-06T14:00:00Z,29.1015,-89.9782,1017.94,11111222 
WAVCIS,ioos:station:WAVCIS:CSI09:1,2013-05-06T15:00:00Z,29.1015,-89.9782,1017.98,11111222 
WAVCIS,ioos:station:WAVCIS:CSI09:1,2013-05-06T16:00:00Z,29.1015,-89.9782,1018.1,11111222 
WAVCIS,ioos:station:WAVCIS:CSI09:1,2013-05-06T17:00:00Z,29.1015,-89.9782,1018.02,11111222 
WAVCIS,ioos:station:WAVCIS:CSI09:1,2013-05-06T18:00:00Z,29.1015,-89.9782,1017.36,11111222 
WAVCIS,ioos:station:WAVCIS:CSI09:1,2013-05-06T19:00:00Z,29.1015,-89.9782,1016.9,11111222 
WAVCIS,ioos:station:WAVCIS:CSI09:1,2013-05-06T20:00:00Z,29.1015,-89.9782,1016.08,11111222 
WAVCIS,ioos:station:WAVCIS:CSI09:1,2013-05-06T21:00:00Z,29.1015,-89.9782,1015.14,11111222 
WAVCIS,ioos:station:WAVCIS:CSI09:1,2013-05-06T22:00:00Z,29.1015,-89.9782,1014.98,11111222 
WAVCIS,ioos:station:WAVCIS:CSI09:1,2013-05-06T23:00:00Z,29.1015,-89.9782,1014.7,11111222 
WAVCIS,ioos:station:WAVCIS:CSI09:1,2013-05-07T00:00:00Z,29.1015,-89.9782,1014.67,11111222 
WAVCIS,ioos:station:WAVCIS:CSI09:1,2013-05-07T01:00:00Z,29.1015,-89.9782,1015.18,11111222 
WAVCIS,ioos:station:WAVCIS:CSI09:1,2013-05-07T02:00:00Z,29.1015,-89.9782,1015.77,11111222 
WAVCIS,ioos:station:WAVCIS:CSI09:1,2013-05-07T03:00:00Z,29.1015,-89.9782,1016.15,11111222 
WAVCIS,ioos:station:WAVCIS:CSI09:1,2013-05-07T04:00:00Z,29.1015,-89.9782,1016.01,11111222 
WAVCIS,ioos:station:WAVCIS:CSI09:1,2013-05-07T05:00:00Z,29.1015,-89.9782,1015.9,11111222 
WAVCIS,ioos:station:WAVCIS:CSI09:1,2013-05-07T06:00:00Z,29.1015,-89.9782,1015.99,11111222 
WAVCIS,ioos:station:WAVCIS:CSI09:1,2013-05-07T07:00:00Z,29.1015,-89.9782,1015.4,11111222 
WAVCIS,ioos:station:WAVCIS:CSI09:1,2013-05-07T08:00:00Z,29.1015,-89.9782,1015.06,11111222 
WAVCIS,ioos:station:WAVCIS:CSI09:1,2013-05-07T09:00:00Z,29.1015,-89.9782,1015.34,11111222 
WAVCIS,ioos:station:WAVCIS:CSI09:1,2013-05-07T10:00:00Z,29.1015,-89.9782,1015.53,11111222 
WAVCIS,ioos:station:WAVCIS:CSI09:1,2013-05-07T11:00:00Z,29.1015,-89.9782,1015.8,11111222 
WAVCIS,ioos:station:WAVCIS:CSI09:1,2013-05-07T12:00:00Z,29.1015,-89.9782,1016.39,11111222 
WAVCIS,ioos:station:WAVCIS:CSI09:1,2013-05-07T13:00:00Z,29.1015,-89.9782,1017.15,11111222 
WAVCIS,ioos:station:WAVCIS:CSI09:1,2013-05-07T14:00:00Z,29.1015,-89.9782,1017.61,11111222 
WAVCIS,ioos:station:WAVCIS:CSI09:1,2013-05-07T15:00:00Z,29.1015,-89.9782,1017.77,11111222 
WAVCIS,ioos:station:WAVCIS:CSI09:1,2013-05-07T16:00:00Z,29.1015,-89.9782,1018.13,11111222 
WAVCIS,ioos:station:WAVCIS:CSI09:1,2013-05-07T17:00:00Z,29.1015,-89.9782,1017.84,11111222 
WAVCIS,ioos:station:WAVCIS:CSI09:1,2013-05-07T18:00:00Z,29.1015,-89.9782,1017.59,11111222 
WAVCIS,ioos:station:WAVCIS:CSI09:1,2013-05-07T19:00:00Z,29.1015,-89.9782,1017.31,11111222 
WAVCIS,ioos:station:WAVCIS:CSI09:1,2013-05-07T20:00:00Z,29.1015,-89.9782,1016.65,11111222 
WAVCIS,ioos:station:WAVCIS:CSI09:1,2013-05-07T21:00:00Z,29.1015,-89.9782,1016.03,11111222 
WAVCIS,ioos:station:WAVCIS:CSI09:1,2013-05-07T22:00:00Z,29.1015,-89.9782,1015.87,11111222 
WAVCIS,ioos:station:WAVCIS:CSI09:1,2013-05-07T23:00:00Z,29.1015,-89.9782,1015.97,11111222 
WAVCIS,ioos:station:WAVCIS:CSI09:1,2013-05-08T00:00:00Z,29.1015,-89.9782,1015.98,11111222 
WAVCIS,ioos:station:WAVCIS:CSI09:1,2013-05-08T01:00:00Z,29.1015,-89.9782,1016.35,11111222 
WAVCIS,ioos:station:WAVCIS:CSI09:1,2013-05-08T02:00:00Z,29.1015,-89.9782,1016.81,11111222 
WAVCIS,ioos:station:WAVCIS:CSI09:1,2013-05-08T03:00:00Z,29.1015,-89.9782,1017.42,11111222 
WAVCIS,ioos:station:WAVCIS:CSI09:1,2013-05-08T04:00:00Z,29.1015,-89.9782,1017.7,11111222 
WAVCIS,ioos:station:WAVCIS:CSI09:1,2013-05-08T05:00:00Z,29.1015,-89.9782,1017.86,11111222 
WAVCIS,ioos:station:WAVCIS:CSI09:1,2013-05-08T06:00:00Z,29.1015,-89.9782,1017.68,11111222 
WAVCIS,ioos:station:WAVCIS:CSI09:1,2013-05-08T07:00:00Z,29.1015,-89.9782,1016.97,11111222 
WAVCIS,ioos:station:WAVCIS:CSI09:1,2013-05-08T08:00:00Z,29.1015,-89.9782,1016.74,11111222 
WAVCIS,ioos:station:WAVCIS:CSI09:1,2013-05-08T09:00:00Z,29.1015,-89.9782,1016.93,11111222 
WAVCIS,ioos:station:WAVCIS:CSI09:1,2013-05-08T10:00:00Z,29.1015,-89.9782,1017.07,11111222 
WAVCIS,ioos:station:WAVCIS:CSI09:1,2013-05-08T11:00:00Z,29.1015,-89.9782,1017.5,11111222 
WAVCIS,ioos:station:WAVCIS:CSI09:1,2013-05-08T12:00:00Z,29.1015,-89.9782,1018.38,11111222 
WAVCIS,ioos:station:WAVCIS:CSI09:1,2013-05-08T13:00:00Z,29.1015,-89.9782,1018.84,11111222 
WAVCIS,ioos:station:WAVCIS:CSI09:1,2013-05-08T14:00:00Z,29.1015,-89.9782,1019.54,11111222 
WAVCIS,ioos:station:WAVCIS:CSI09:1,2013-05-08T15:00:00Z,29.1015,-89.9782,1019.95,11111222 
WAVCIS,ioos:station:WAVCIS:CSI09:1,2013-05-08T16:00:00Z,29.1015,-89.9782,1020.43,11111222 
WAVCIS,ioos:station:WAVCIS:CSI09:1,2013-05-08T17:00:00Z,29.1015,-89.9782,1020.3,11111222 
WAVCIS,ioos:station:WAVCIS:CSI09:1,2013-05-08T18:00:00Z,29.1015,-89.9782,1020.03,11111222 
WAVCIS,ioos:station:WAVCIS:CSI09:1,2013-05-08T19:00:00Z,29.1015,-89.9782,1020.0,11111222 
WAVCIS,ioos:station:WAVCIS:CSI09:1,2013-05-08T20:00:00Z,29.1015,-89.9782,1019.52,11111222 
WAVCIS,ioos:station:WAVCIS:CSI09:1,2013-05-08T21:00:00Z,29.1015,-89.9782,1019.12,11111222 
WAVCIS,ioos:station:WAVCIS:CSI09:1,2013-05-08T22:00:00Z,29.1015,-89.9782,1018.83,11111222 
WAVCIS,ioos:station:WAVCIS:CSI09:1,2013-05-08T23:00:00Z,29.1015,-89.9782,1018.58,11111222 
WAVCIS,ioos:station:WAVCIS:CSI09:1,2013-05-09T00:00:00Z,29.1015,-89.9782,1018.37,11111222 
WAVCIS,ioos:station:WAVCIS:CSI09:1,2013-05-09T01:00:00Z,29.1015,-89.9782,1018.7,11111222 
WAVCIS,ioos:station:WAVCIS:CSI09:1,2013-05-09T02:00:00Z,29.1015,-89.9782,1018.65,11111222 
WAVCIS,ioos:station:WAVCIS:CSI09:1,2013-05-09T03:00:00Z,29.1015,-89.9782,1018.99,11111222 
WAVCIS,ioos:station:WAVCIS:CSI09:1,2013-05-09T04:00:00Z,29.1015,-89.9782,1019.0,11111222 
WAVCIS,ioos:station:WAVCIS:CSI09:1,2013-05-09T05:00:00Z,29.1015,-89.9782,1019.01,11111222 
WAVCIS,ioos:station:WAVCIS:CSI09:1,2013-05-09T06:00:00Z,29.1015,-89.9782,1018.31,11111222 
WAVCIS,ioos:station:WAVCIS:CSI09:1,2013-05-09T07:00:00Z,29.1015,-89.9782,1017.84,11111222 
WAVCIS,ioos:station:WAVCIS:CSI09:1,2013-05-09T08:00:00Z,29.1015,-89.9782,1017.28,11111222 
WAVCIS,ioos:station:WAVCIS:CSI09:1,2013-05-09T09:00:00Z,29.1015,-89.9782,1016.79,11111222 
WAVCIS,ioos:station:WAVCIS:CSI09:1,2013-05-09T10:00:00Z,29.1015,-89.9782,1017.06,11111222 
WAVCIS,ioos:station:WAVCIS:CSI09:1,2013-05-09T11:00:00Z,29.1015,-89.9782,1017.3,11111222 
WAVCIS,ioos:station:WAVCIS:CSI09:1,2013-05-09T12:00:00Z,29.1015,-89.9782,1018.4,11111222 
WAVCIS,ioos:station:WAVCIS:CSI09:1,2013-05-09T13:00:00Z,29.1015,-89.9782,1018.63,11111222 
WAVCIS,ioos:station:WAVCIS:CSI09:1,2013-05-09T14:00:00Z,29.1015,-89.9782,1019.24,11111222 
WAVCIS,ioos:station:WAVCIS:CSI09:1,2013-05-09T15:00:00Z,29.1015,-89.9782,1019.57,11111222 
WAVCIS,ioos:station:WAVCIS:CSI09:1,2013-05-09T16:00:00Z,29.1015,-89.9782,1019.87,11111222 
WAVCIS,ioos:station:WAVCIS:CSI09:1,2013-05-09T17:00:00Z,29.1015,-89.9782,1019.72,11111222 
WAVCIS,ioos:station:WAVCIS:CSI09:1,2013-05-09T18:00:00Z,29.1015,-89.9782,1019.47,11111222 
WAVCIS,ioos:station:WAVCIS:CSI09:1,2013-05-09T19:00:00Z,29.1015,-89.9782,1019.36,11111222 
WAVCIS,ioos:station:WAVCIS:CSI09:1,2013-05-09T20:00:00Z,29.1015,-89.9782,1018.82,11111222 
WAVCIS,ioos:station:WAVCIS:CSI09:1,2013-05-09T21:00:00Z,29.1015,-89.9782,1018.0,11111222 
WAVCIS,ioos:station:WAVCIS:CSI09:1,2013-05-09T22:00:00Z,29.1015,-89.9782,1017.79,11111222 
WAVCIS,ioos:station:WAVCIS:CSI09:1,2013-05-09T23:00:00Z,29.1015,-89.9782,1017.48,11111222 
WAVCIS,ioos:station:WAVCIS:CSI09:1,2013-05-10T00:00:00Z,29.1015,-89.9782,1017.25,11111222 
WAVCIS,ioos:station:WAVCIS:CSI09:1,2013-05-10T01:00:00Z,29.1015,-89.9782,1016.96,11111222 
WAVCIS,ioos:station:WAVCIS:CSI09:1,2013-05-10T02:00:00Z,29.1015,-89.9782,1017.08,11111222 
WAVCIS,ioos:station:WAVCIS:CSI09:1,2013-05-10T03:00:00Z,29.1015,-89.9782,1017.8,11111222 
WAVCIS,ioos:station:WAVCIS:CSI09:1,2013-05-10T04:00:00Z,29.1015,-89.9782,1016.91,11111222 
WAVCIS,ioos:station:WAVCIS:CSI09:1,2013-05-10T05:00:00Z,29.1015,-89.9782,1016.7,11111222 
WAVCIS,ioos:station:WAVCIS:CSI09:1,2013-05-10T06:00:00Z,29.1015,-89.9782,1016.14,11111222 
WAVCIS,ioos:station:WAVCIS:CSI09:1,2013-05-10T07:00:00Z,29.1015,-89.9782,1015.43,11111222 
WAVCIS,ioos:station:WAVCIS:CSI09:1,2013-05-10T08:00:00Z,29.1015,-89.9782,1014.49,11111222 
WAVCIS,ioos:station:WAVCIS:CSI09:1,2013-05-10T09:00:00Z,29.1015,-89.9782,1014.71,11111222 
WAVCIS,ioos:station:WAVCIS:CSI09:1,2013-05-10T10:00:00Z,29.1015,-89.9782,1014.06,11111222 
WAVCIS,ioos:station:WAVCIS:CSI09:1,2013-05-10T11:00:00Z,29.1015,-89.9782,1013.52,11111222 
WAVCIS,ioos:station:WAVCIS:CSI09:1,2013-05-10T12:00:00Z,29.1015,-89.9782,1013.42,11111222 
WAVCIS,ioos:station:WAVCIS:CSI09:1,2013-05-10T13:00:00Z,29.1015,-89.9782,1016.25,11111222 
WAVCIS,ioos:station:WAVCIS:CSI09:1,2013-05-10T14:00:00Z,29.1015,-89.9782,1018.49,11111222 
WAVCIS,ioos:station:WAVCIS:CSI09:1,2013-05-10T15:00:00Z,29.1015,-89.9782,1018.39,11111222 
WAVCIS,ioos:station:WAVCIS:CSI09:1,2013-05-10T16:00:00Z,29.1015,-89.9782,1016.59,11111222 
WAVCIS,ioos:station:WAVCIS:CSI09:1,2013-05-10T17:00:00Z,29.1015,-89.9782,1017.67,11111222 
WAVCIS,ioos:station:WAVCIS:CSI09:1,2013-05-10T18:00:00Z,29.1015,-89.9782,1017.14,11111222 
WAVCIS,ioos:station:WAVCIS:CSI09:1,2013-05-10T19:00:00Z,29.1015,-89.9782,1016.13,11111222 
WAVCIS,ioos:station:WAVCIS:CSI09:1,2013-05-10T20:00:00Z,29.1015,-89.9782,1015.98,11111222 
WAVCIS,ioos:station:WAVCIS:CSI09:1,2013-05-10T21:00:00Z,29.1015,-89.9782,1015.46,11111222 
WAVCIS,ioos:station:WAVCIS:CSI09:1,2013-05-10T22:00:00Z,29.1015,-89.9782,1015.37,11111222 
WAVCIS,ioos:station:WAVCIS:CSI09:1,2013-05-10T23:00:00Z,29.1015,-89.9782,1017.59,11111222 
WAVCIS,ioos:station:WAVCIS:CSI09:1,2013-05-11T00:00:00Z,29.1015,-89.9782,1017.21,11111222 
WAVCIS,ioos:station:WAVCIS:CSI09:1,2013-05-11T01:00:00Z,29.1015,-89.9782,1014.6,11111222 
WAVCIS,ioos:station:WAVCIS:CSI09:1,2013-05-11T02:00:00Z,29.1015,-89.9782,1014.37,11111222 
WAVCIS,ioos:station:WAVCIS:CSI09:1,2013-05-11T03:00:00Z,29.1015,-89.9782,1014.24,11111222 
WAVCIS,ioos:station:WAVCIS:CSI09:1,2013-05-11T04:00:00Z,29.1015,-89.9782,1014.64,11111222 
WAVCIS,ioos:station:WAVCIS:CSI09:1,2013-05-11T05:00:00Z,29.1015,-89.9782,1014.6,11111222 
WAVCIS,ioos:station:WAVCIS:CSI09:1,2013-05-11T06:00:00Z,29.1015,-89.9782,1014.5,11111222 
WAVCIS,ioos:station:WAVCIS:CSI09:1,2013-05-11T07:00:00Z,29.1015,-89.9782,1014.4,11111222 
WAVCIS,ioos:station:WAVCIS:CSI09:1,2013-05-11T08:00:00Z,29.1015,-89.9782,1014.25,11111222 
WAVCIS,ioos:station:WAVCIS:CSI09:1,2013-05-11T09:00:00Z,29.1015,-89.9782,1014.27,11111222 
WAVCIS,ioos:station:WAVCIS:CSI09:1,2013-05-11T10:00:00Z,29.1015,-89.9782,1014.38,11111222 
WAVCIS,ioos:station:WAVCIS:CSI09:1,2013-05-11T11:00:00Z,29.1015,-89.9782,1014.21,11111222 
WAVCIS,ioos:station:WAVCIS:CSI09:1,2013-05-11T12:00:00Z,29.1015,-89.9782,1016.99,11111222 
WAVCIS,ioos:station:WAVCIS:CSI09:1,2013-05-11T13:00:00Z,29.1015,-89.9782,1015.39,11111222 
WAVCIS,ioos:station:WAVCIS:CSI09:1,2013-05-11T14:00:00Z,29.1015,-89.9782,1016.36,11111222 
WAVCIS,ioos:station:WAVCIS:CSI09:1,2013-05-11T15:00:00Z,29.1015,-89.9782,1016.16,11111222 
WAVCIS,ioos:station:WAVCIS:CSI09:1,2013-05-11T16:00:00Z,29.1015,-89.9782,1015.72,11111222 
WAVCIS,ioos:station:WAVCIS:CSI09:1,2013-05-11T17:00:00Z,29.1015,-89.9782,1016.54,11111222 
WAVCIS,ioos:station:WAVCIS:CSI09:1,2013-05-11T18:00:00Z,29.1015,-89.9782,1016.42,11111222 
WAVCIS,ioos:station:WAVCIS:CSI09:1,2013-05-11T19:00:00Z,29.1015,-89.9782,1015.8,11111222 
WAVCIS,ioos:station:WAVCIS:CSI09:1,2013-05-11T20:00:00Z,29.1015,-89.9782,1015.32,11111222 
WAVCIS,ioos:station:WAVCIS:CSI09:1,2013-05-11T21:00:00Z,29.1015,-89.9782,1014.21,11111222 
WAVCIS,ioos:station:WAVCIS:CSI09:1,2013-05-11T22:00:00Z,29.1015,-89.9782,1015.13,11111222 